GW3806 Weather Reports


time (UTC)temp
F
wind
direction
speed
knots
gust
knots
rain 1hr
in
rain 24hr
in
rain mn
in
humidity
%
barometer
mb
20260505053413 46 0 0.0 0.0 0.00 0.00 0.00 70 1009.0
20260505052910 46 23 0.0 0.0 0.00 0.00 0.00 70 1008.8
20260505052407 46 351 1.7 1.7 0.00 0.00 0.00 70 1009.1
20260505051904 45 165 0.0 0.0 0.00 0.00 0.00 71 1008.8
20260505051401 45 165 0.0 0.0 0.00 0.00 0.00 71 1009.1
20260505050859 46 23 0.0 0.0 0.00 0.00 0.00 70 1008.7
20260505050357 46 276 1.7 1.7 0.00 0.00 0.00 70 1008.7
20260505041325 49 94 2.6 4.3 0.00 0.00 0.00 64 1008.5
20260505040821 50 126 4.3 4.3 0.00 0.00 0.00 64 1008.2
20260505040319 49 123 2.6 6.1 0.00 0.00 0.00 64 1008.4
20260505035816 48 125 2.6 4.3 0.00 0.00 0.00 67 1008.1
20260505035311 49 90 0.9 6.1 0.00 0.00 0.00 66 1008.2
20260505034809 50 110 3.5 7.0 0.00 0.00 0.00 63 1008.0
20260505034305 50 135 1.7 7.8 0.00 0.00 0.00 63 1008.1
20260505033803 50 11 1.7 4.3 0.00 0.00 0.00 64 1008.2
20260505033259 50 32 0.0 2.6 0.00 0.00 0.00 65 1008.1
20260505032757 50 8 0.0 4.3 0.00 0.00 0.00 64 1008.1
20260505032253 50 23 2.6 4.3 0.00 0.00 0.00 64 1008.0
20260505031750 50 17 2.6 6.1 0.00 0.00 0.00 64 1008.0
20260505031247 50 28 1.7 4.3 0.00 0.00 0.00 63 1007.7
20260505030744 50 84 6.1 6.1 0.00 0.00 0.00 64 1007.9
20260505030240 50 72 3.5 9.6 0.00 0.00 0.00 64 1007.9
20260505025735 51 103 4.3 8.7 0.00 0.00 0.00 63 1007.7
20260505025234 50 106 2.6 6.1 0.00 0.00 0.00 64 1007.7
20260505024732 50 90 1.7 7.8 0.00 0.00 0.00 64 1007.5
20260505024229 51 75 1.7 7.8 0.00 0.00 0.00 63 1007.6
20260505023726 51 99 6.1 7.0 0.00 0.00 0.00 63 1007.5
20260505023223 51 106 0.0 3.5 0.00 0.00 0.00 64 1007.7
20260505022721 51 63 0.0 4.3 0.00 0.00 0.00 63 1007.6
20260505022217 51 28 0.9 3.5 0.00 0.00 0.00 63 1007.7
20260505021714 51 45 1.7 7.0 0.00 0.00 0.00 62 1007.9
20260505021211 52 90 1.7 5.2 0.00 0.00 0.00 61 1007.9
20260505020707 52 73 0.0 6.1 0.00 0.00 0.00 60 1007.6
20260505020202 53 103 3.5 4.3 0.00 0.00 0.00 59 1007.6
20260505015700 53 82 1.7 3.5 0.00 0.00 0.00 58 1007.5
20260505015156 53 75 3.5 6.1 0.00 0.00 0.00 59 1007.5
20260505014654 54 88 4.3 4.3 0.00 0.00 0.00 58 1007.6
20260505014150 54 94 4.3 7.0 0.00 0.00 0.00 61 1007.6
20260505013648 55 88 3.5 4.3 0.00 0.00 0.00 56 1007.6
20260505013144 56 7 0.9 3.5 0.00 0.00 0.00 56 1007.6
20260505012643 57 23 1.7 3.5 0.00 0.00 0.00 56 1007.5
20260505012140 58 34 1.7 2.6 0.00 0.00 0.00 54 1007.6
20260505011635 57 60 0.9 4.3 0.00 0.00 0.00 55 1007.6
20260505011133 57 102 4.3 5.2 0.00 0.00 0.00 51 1007.6
20260505010628 58 111 3.5 5.2 0.00 0.00 0.00 52 1007.6
20260505010125 59 120 3.5 6.1 0.00 0.00 0.00 49 1007.7
20260505005621 58 132 4.3 6.1 0.00 0.00 0.00 52 1008.0
20260505005118 58 155 4.3 7.8 0.00 0.00 0.00 54 1007.9
20260505004615 57 131 4.3 9.6 0.00 0.00 0.00 56 1007.7
20260505004112 56 148 7.0 11.3 0.00 0.00 0.00 58 1008.0
20260505003609 57 153 6.1 7.8 0.00 0.00 0.00 56 1007.7
20260505003106 56 160 0.0 5.2 0.02 0.00 0.00 60 1007.9
20260505002601 54 145 3.5 3.5 0.02 0.00 0.00 62 1007.9
20260505002055 55 238 2.6 12.2 0.00 0.00 0.00 61 1008.2
20260505001552 56 231 10.4 14.8 0.00 0.00 0.00 54 1008.0
20260505001049 56 273 2.6 13.0 0.00 0.00 0.00 54 1008.1
20260505000547 56 302 5.2 14.8 0.00 0.00 0.00 52 1008.0
20260505000044 59 330 1.7 4.3 0.00 0.00 0.00 46 1007.9
20260504235540 60 334 1.7 4.3 0.00 0.00 0.00 47 1007.6
20260504235038 60 313 2.6 10.4 0.00 0.00 0.00 44 1007.5
20260504234534 60 276 0.9 7.8 0.00 0.00 0.00 48 1007.3
20260504234031 60 311 0.0 4.3 0.00 0.00 0.00 45 1007.4
20260504233526 61 251 0.9 2.6 0.00 0.00 0.00 43 1007.5
20260504233024 62 355 1.7 4.3 0.00 0.00 0.00 43 1007.3
20260504232521 64 4 5.2 7.8 0.00 0.00 0.00 43 1007.5
20260504232019 64 5 4.3 8.7 0.00 0.00 0.00 43 1007.4
20260504231515 63 347 4.3 11.3 0.00 0.00 0.00 43 1007.4
20260504231011 62 0 11.3 16.5 0.00 0.00 0.00 44 1007.4
20260504230508 62 358 13.9 15.6 0.00 0.00 0.00 43 1007.4
20260504230007 62 16 6.1 14.8 0.00 0.00 0.00 44 1007.4
20260504225503 62 18 6.1 15.6 0.00 0.00 0.00 44 1007.5
20260504225000 62 352 7.8 10.4 0.00 0.00 0.00 46 1007.5
20260504224456 62 297 1.7 6.1 0.00 0.00 0.00 44 1007.5
20260504223953 62 341 3.5 11.3 0.00 0.00 0.00 42 1007.5
20260504223450 63 320 5.2 14.8 0.00 0.00 0.00 40 1007.3
20260504222945 63 328 9.6 14.8 0.00 0.00 0.00 39 1007.3
20260504222443 66 277 9.6 12.2 0.00 0.00 0.00 39 1007.1
20260504221941 66 293 17.4 17.4 0.00 0.00 0.00 37 1007.3
20260504221438 68 287 2.6 5.2 0.00 0.00 0.00 36 1007.1
20260504220934 68 273 2.6 6.1 0.00 0.00 0.00 37 1007.0
20260504220431 67 32 2.6 5.2 0.00 0.00 0.00 35 1007.1
20260504215928 66 282 6.1 10.4 0.00 0.00 0.00 37 1007.4
20260504215425 67 329 2.6 5.2 0.00 0.00 0.00 38 1007.5
20260504214921 67 353 3.5 5.2 0.00 0.00 0.00 40 1007.5
20260504214418 66 283 3.5 13.0 0.00 0.00 0.00 36 1007.6
20260504213915 67 265 1.7 6.1 0.00 0.00 0.00 39 1007.7
20260504213410 67 298 9.6 10.4 0.00 0.00 0.00 35 1007.7
20260504212909 66 313 8.7 13.0 0.00 0.00 0.00 37 1007.6
20260504212404 68 350 2.6 7.8 0.00 0.00 0.00 37 1007.6
20260504211902 68 246 8.7 9.6 0.00 0.00 0.00 38 1007.9
20260504211358 65 291 3.5 10.4 0.00 0.00 0.00 38 1007.7
20260504210855 65 299 3.5 10.4 0.00 0.00 0.00 35 1007.9
20260504210352 66 266 6.1 10.4 0.00 0.00 0.00 37 1008.1
20260504205849 67 275 3.5 11.3 0.00 0.00 0.00 38 1007.9
20260504205347 67 295 3.5 14.8 0.00 0.00 0.00 38 1008.1
20260504204845 67 282 7.0 10.4 0.00 0.00 0.00 39 1008.0
20260504204343 66 268 7.8 15.6 0.00 0.00 0.00 37 1008.0
20260504203842 67 209 7.0 13.0 0.00 0.00 0.00 39 1008.0
20260504203339 66 334 6.1 7.8 0.00 0.00 0.00 38 1008.1
20260504202834 66 270 5.2 7.8 0.00 0.00 0.00 38 1008.2
20260504202332 66 270 4.3 8.7 0.00 0.00 0.00 40 1008.2
20260504201828 64 308 7.8 11.3 0.00 0.00 0.00 38 1008.2
20260504201326 66 287 0.0 6.1 0.00 0.00 0.00 39 1008.2
20260504200823 66 261 7.8 10.4 0.00 0.00 0.00 40 1008.4
20260504200320 66 310 0.0 8.7 0.00 0.00 0.00 38 1008.4
20260504195816 67 303 1.7 9.6 0.00 0.00 0.00 41 1008.4
20260504195312 65 228 5.2 7.8 0.00 0.00 0.00 39 1008.4
20260504194809 66 274 6.1 11.3 0.00 0.00 0.00 39 1008.6
20260504194305 65 6 4.3 9.6 0.00 0.00 0.00 37 1008.4
20260504193801 64 276 3.5 4.3 0.00 0.00 0.00 43 1008.6
20260504193259 63 270 1.7 6.1 0.00 0.00 0.00 40 1008.6
20260504192757 64 270 1.7 7.0 0.00 0.00 0.00 40 1008.6
20260504192254 66 270 2.6 7.8 0.00 0.00 0.00 37 1008.5
20260504191753 65 268 4.3 7.0 0.00 0.00 0.00 39 1008.7
20260504191250 67 346 1.7 7.8 0.00 0.00 0.00 40 1008.7
20260504190745 64 207 2.6 7.0 0.00 0.00 0.00 36 1008.6
20260504190242 64 275 3.5 7.8 0.00 0.00 0.00 36 1008.8
20260504185738 64 331 4.3 7.0 0.00 0.00 0.00 37 1009.0
20260504185235 63 344 2.6 4.3 0.00 0.00 0.00 39 1009.0
20260504184731 64 258 5.2 9.6 0.00 0.00 0.00 40 1009.0
20260504184227 65 278 6.1 9.6 0.00 0.00 0.00 41 1009.0
20260504183723 64 23 3.5 6.1 0.00 0.00 0.00 43 1009.0
20260504183220 63 275 7.8 7.8 0.00 0.00 0.00 41 1009.1
20260504182719 63 313 0.0 6.1 0.00 0.00 0.00 43 1009.2
20260504182215 62 281 2.6 5.2 0.00 0.00 0.00 43 1009.2
20260504181713 62 344 4.3 7.0 0.00 0.00 0.00 42 1009.3
20260504181210 62 5 0.9 2.6 0.00 0.00 0.00 41 1009.1
20260504180709 62 270 1.7 6.1 0.00 0.00 0.00 42 1009.1
20260504180207 62 281 5.2 6.1 0.00 0.00 0.00 41 1009.2
20260504175704 62 251 2.6 4.3 0.00 0.00 0.00 39 1009.1
20260504175201 62 310 2.6 7.0 0.00 0.00 0.00 43 1009.1
20260504174659 61 201 2.6 7.0 0.00 0.00 0.00 42 1009.2
20260504174156 61 239 6.1 7.8 0.00 0.00 0.00 42 1009.4
20260504173653 62 247 5.2 7.0 0.00 0.00 0.00 41 1009.4
20260504173150 62 252 2.6 5.2 0.00 0.00 0.00 41 1009.3
20260504172647 62 243 3.5 7.0 0.00 0.00 0.00 38 1009.3
20260504172143 63 205 4.3 4.3 0.00 0.00 0.00 38 1009.2
20260504171639 63 0 2.6 3.5 0.00 0.00 0.00 39 1009.3
20260504171137 60 342 0.9 3.5 0.00 0.00 0.00 38 1009.2
20260504170633 61 7 3.5 4.3 0.00 0.00 0.00 39 1009.3
20260504170131 61 270 0.0 1.7 0.00 0.00 0.00 40 1009.3
20260504151016 56 0 0.9 4.3 0.00 0.00 0.00 46 1009.3
20260504150513 55 34 1.7 5.2 0.00 0.00 0.00 48 1009.2
20260504140939 50 26 2.6 5.2 0.00 0.00 0.00 54 1009.2
20260504140435 50 31 2.6 3.5 0.00 0.00 0.00 57 1009.2
20260504130400 43 127 0.0 3.5 0.00 0.00 0.00 60 1008.8
20260504110248 44 79 6.1 7.0 0.00 0.00 0.00 61 1009.2
20260504100205 45 66 0.0 6.1 0.00 0.00 0.00 60 1009.2
20260504090122 47 86 7.0 9.6 0.00 0.00 0.00 57 1009.3
20260504081552 46 95 3.5 5.2 0.00 0.00 0.00 56 1009.8
20260504081048 47 135 3.5 6.1 0.00 0.00 0.00 54 1009.9
20260504080545 48 107 2.6 7.8 0.00 0.00 0.00 51 1010.0